Regional Weather Roundup
Issued by NWS

Home | Current Version | Previous Version | Graphics & Text | Print | Product List | Glossary On
Versions: 1 2 3 4 5 6 7 8 9 10 11 12 13 14 15 16 17 18 19 20 21 22 23 24 25 26 27 28 29 30 31 32 33 34 35 36 37 38 39 40 41 42 43 44 45 46 47 48 49 50
000
ASUS43 KBIS 160320
RWRND

NORTH DAKOTA REGIONAL WEATHER ROUNDUP
NATIONAL WEATHER SERVICE BISMARCK ND
1000 PM CDT TUE APR 15 2014

NOTE: "FAIR" INDICATES FEW OR NO CLOUDS BELOW 12,000 FEET WITH NO
SIGNIFICANT WEATHER AND/OR OBSTRUCTIONS TO VISIBILITY.


NDZ001>003-009>011-017-160400-
NORTHWEST NORTH DAKOTA

CITY           SKY/WX    TMP DP  RH WIND       PRES   REMARKS
WILLISTON      CLOUDY    38  28  67 SE26      29.69R
MINOT          LGT SNOW  27  22  81 E23       29.83R WCI  12
MINOT AFB      FLURRIES  27  25  93 E23       29.83R WCI  12
$$

NDZ018>021-031>035-040>046-160400-
SOUTHWEST NORTH DAKOTA

CITY           SKY/WX    TMP DP  RH WIND       PRES   REMARKS
BISMARCK       MOCLDY    32  17  54 E23G31    29.77R WCI  19
DICKINSON      MOCLDY    38  22  52 E14       29.60R
GARRISON         N/A     30  20  66 E23G31    29.76R WCI  17
HETTINGER ARPT CLOUDY    44  24  45 E14       29.62R
$$

NDZ004>008-012>016-024-026-027-054-160400-
NORTHEAST NORTH DAKOTA

CITY           SKY/WX    TMP DP  RH WIND       PRES   REMARKS
GRAND FORKS    CLOUDY    30  15  53 E9        29.98S
GRND FRKS AFB  CLOUDY    30  14  52 E7        30.02R
DEVILS LAKE    CLOUDY    27  10  50 E22G29    29.93S WCI  12
$$

NDZ022-023-025-028>030-036>039-047>053-160400-
SOUTHEAST NORTH DAKOTA

CITY           SKY/WX    TMP DP  RH WIND       PRES   REMARKS
FARGO          CLOUDY    33  13  43 E8        29.98R
JAMESTOWN      CLOUDY    28  22  78 E24       29.87R WCI  14
$$




USA.gov is the U.S. government's official web portal to all federal, state and local government web resources and services.